Weather History for Watonga, OK

Change the Weather History Date:

Wednesday, February 13, 2013

  Actual Average Record
Temperature  
Mean Temperature 30 °F -  
Max Temperature 43 °F 54 °F 79 °F (1962)
Min Temperature 18 °F 29 °F 14 °F (1982)
Degree Days  
Heating Degree Days 34    
Moisture  
Dew Point 31 °F    
Average Humidity 91    
Maximum Humidity 100    
Minimum Humidity 70    
Precipitation  
Precipitation 0.00 in - - ()
Sea Level Pressure  
Sea Level Pressure 30.02 in    
Wind  
Wind Speed 6 mph (WSW)    
Max Wind Speed 12 mph    
Max Gust Speed -    
Visibility 8 miles    
Events Fog    
Averages and records for this station are not official NWS values.
T = Trace of Precipitation, MM = Missing Value Source: NWS Daily Summary

Daily Weather History Graph

Daily Weather History Graph

Search for Another Location

Airport:

Trip Planner

Search our weather history database for the weather conditions in past years. The results will help you decide how hot, cold, wet, or windy it might be!

Date:

Astronomy

Feb. 13, 2013 Rise Set
Actual Time 7:22 AM CST 6:13 PM CST
Civil Twilight 6:56 AM CST 6:39 PM CST
Nautical Twilight 6:26 AM CST 7:09 PM CST
Astronomical Twilight 5:56 AM CST 7:39 PM CST
Moon 9:01 AM CST (2/13) 10:07 PM CST (2/13)
Length of Visible Light 11h 43m
Length of Day
10h 51m
Waxing Crescent, 14% of the Moon is Illuminated
Feb 13
Waxing Crescent
Feb 17
First Quarter
Feb 25
Full
Mar 4
Last Quarter
Mar 11
New

Hourly Weather History & Observations

Time (CST) Temp. Windchill Dew Point Humidity Pressure Visibility Wind Dir Wind Speed Gust Speed Precip Events Conditions
12:15 AM 32.9 °F 25.9 °F 32.9 °F 100% 30.06 in 0.8 mi WNW 8.1 mph - N/A   Overcast
12:35 AM 32.4 °F 24.6 °F 32.4 °F 100% 30.06 in 0.8 mi WNW 9.2 mph - N/A   Overcast
12:55 AM 32.0 °F 24.2 °F 32.0 °F 100% 30.06 in 0.8 mi West 9.2 mph - N/A   Overcast
1:15 AM 32.0 °F 24.8 °F 32.0 °F 100% 30.06 in 0.8 mi West 8.1 mph - N/A   Overcast
1:35 AM 32.0 °F 23.6 °F 32.0 °F 100% 30.06 in 0.5 mi West 10.4 mph - N/A Fog Fog
1:55 AM 32.0 °F 24.2 °F 32.0 °F 100% 30.06 in 0.5 mi West 9.2 mph - N/A Fog Fog
2:15 AM 32.0 °F 23.0 °F 32.0 °F 100% 30.06 in 0.8 mi West 11.5 mph - N/A   Overcast
2:35 AM 32.0 °F 26.4 °F 32.0 °F 100% 30.06 in 1.0 mi WNW 5.8 mph - N/A   Overcast
2:55 AM 30.9 °F 27.5 °F 30.9 °F 100% 30.05 in 1.0 mi West 3.5 mph - N/A   Overcast
3:15 AM 29.3 °F 25.6 °F 29.3 °F 100% 30.04 in 0.2 mi WSW 3.5 mph - N/A Fog Light Freezing Fog
3:35 AM 25.7 °F 21.5 °F 25.7 °F 100% 30.04 in 0.5 mi WSW 3.5 mph - N/A Fog Light Freezing Fog
3:55 AM 25.5 °F - 25.5 °F 100% 30.03 in 0.5 mi Calm Calm - N/A Fog Light Freezing Fog
4:15 AM 26.1 °F 21.9 °F 26.1 °F 100% 30.02 in 0.5 mi SW 3.5 mph - N/A Fog Light Freezing Fog
4:35 AM 24.1 °F 19.7 °F 24.1 °F 100% 30.02 in 0.8 mi SW 3.5 mph - N/A   Mist
4:55 AM 23.7 °F 19.3 °F 23.7 °F 100% 30.02 in 1.8 mi SSW 3.5 mph - N/A   Mist
5:15 AM 23.4 °F 16.2 °F 23.4 °F 100% 30.02 in 5.0 mi SW 5.8 mph - N/A   Clear
5:35 AM 22.5 °F 15.1 °F 22.5 °F 100% 30.02 in 10.0 mi SW 5.8 mph - N/A   Clear
5:55 AM 24.4 °F 18.6 °F 24.4 °F 100% 30.02 in 10.0 mi SW 4.6 mph - N/A   Clear
6:15 AM 25.0 °F 19.3 °F 25.0 °F 100% 30.02 in 10.0 mi West 4.6 mph - N/A   Clear
6:35 AM 24.3 °F 16.3 °F 24.3 °F 100% 30.03 in 10.0 mi West 6.9 mph - N/A   Clear
6:55 AM 22.3 °F 14.9 °F 22.3 °F 100% 30.03 in 7.0 mi West 5.8 mph - N/A   Clear
7:15 AM 23.9 °F 19.5 °F 23.9 °F 100% 30.04 in 10.0 mi West 3.5 mph - N/A   Clear
7:35 AM 22.3 °F - 22.3 °F 100% 30.04 in 5.0 mi Calm Calm - N/A   Clear
7:55 AM 19.0 °F - 19.0 °F 100% 30.04 in 0.5 mi Calm Calm - N/A Fog Light Freezing Fog
8:15 AM 18.9 °F 13.7 °F 18.9 °F 100% 30.04 in 0.2 mi WSW 3.5 mph - N/A Fog Light Freezing Fog
8:35 AM 20.1 °F - 20.1 °F 100% 30.05 in 2.0 mi Calm Calm - N/A   Clear
8:55 AM 24.1 °F 17.0 °F 24.1 °F 100% 30.06 in 10.0 mi NW 5.8 mph - N/A   Clear
9:15 AM - - - N/A% 30.06 in 10.0 mi WNW 6.9 mph - N/A   Clear
9:35 AM - - - N/A% 30.06 in 10.0 mi WNW 5.8 mph - N/A   Clear
9:55 AM 26.4 °F 19.8 °F 26.4 °F 100% 30.06 in 10.0 mi WNW 5.8 mph - N/A   Clear
10:15 AM 27.5 °F - 27.5 °F 100% 30.06 in 10.0 mi Calm Calm - N/A   Clear
10:35 AM 29.3 °F - 29.3 °F 100% 30.06 in 10.0 mi Calm Calm - N/A   Clear
10:55 AM 30.9 °F - 30.9 °F 100% 30.06 in 10.0 mi Calm Calm - N/A   Clear
11:15 AM 32.7 °F - 32.0 °F 97% 30.06 in 10.0 mi Calm Calm - N/A   Clear
11:35 AM 34.7 °F - 32.2 °F 91% 30.07 in 10.0 mi Calm Calm - N/A   Clear
11:55 AM 36.3 °F 33.7 °F 32.0 °F 84% 30.06 in 10.0 mi South 3.5 mph - N/A   Clear
12:15 PM 37.8 °F 32.5 °F 33.8 °F 86% 30.06 in 10.0 mi SSW 6.9 mph - N/A   Clear
12:35 PM 37.0 °F 31.6 °F 33.6 °F 87% 30.05 in 10.0 mi SW 6.9 mph - N/A   Clear
12:55 PM 37.9 °F 32.7 °F 33.8 °F 85% 30.04 in 10.0 mi WSW 6.9 mph - N/A   Clear
1:15 PM 38.3 °F 33.2 °F 34.0 °F 84% 30.04 in 10.0 mi WSW 6.9 mph - N/A   Clear
1:35 PM 39.2 °F 33.6 °F 34.2 °F 82% 30.03 in 10.0 mi WSW 8.1 mph - N/A   Clear
1:55 PM 38.8 °F 34.6 °F 34.9 °F 86% 30.02 in 10.0 mi SW 5.8 mph - N/A   Clear
2:15 PM 39.2 °F 34.2 °F 35.1 °F 85% 30.01 in 10.0 mi SW 6.9 mph - N/A   Clear
2:35 PM 39.9 °F 35.1 °F 35.8 °F 85% 30.01 in 10.0 mi WSW 6.9 mph - N/A   Clear
2:55 PM 40.6 °F 34.8 °F 35.6 °F 82% 30.00 in 10.0 mi SW 9.2 mph - N/A   Clear
3:15 PM 41.4 °F 36.2 °F 35.1 °F 78% 30.00 in 10.0 mi SW 8.1 mph - N/A   Clear
3:35 PM 41.4 °F 36.8 °F 36.1 °F 82% 29.99 in 10.0 mi SW 6.9 mph - N/A   Clear
3:55 PM 42.8 °F 38.0 °F 36.1 °F 77% 29.99 in 10.0 mi SW 8.1 mph - N/A   Clear
4:15 PM 43.0 °F 38.8 °F 36.0 °F 76% 29.99 in 10.0 mi SW 6.9 mph - N/A   Clear
4:35 PM 43.5 °F 40.1 °F 35.2 °F 73% 29.99 in 10.0 mi SW 5.8 mph - N/A   Clear
4:55 PM 43.7 °F 40.3 °F 36.0 °F 74% 29.99 in 10.0 mi SW 5.8 mph - N/A   Clear
5:15 PM 43.7 °F 39.7 °F 35.8 °F 74% 29.98 in 10.0 mi SSW 6.9 mph - N/A   Clear
5:35 PM 42.8 °F 38.6 °F 33.8 °F 70% 29.98 in 10.0 mi SW 6.9 mph - N/A   Clear
5:55 PM 42.1 °F 37.1 °F 34.2 °F 74% 29.98 in 10.0 mi SW 8.1 mph - N/A   Clear
6:15 PM 40.5 °F 35.1 °F 34.9 °F 80% 29.97 in 10.0 mi SW 8.1 mph - N/A   Clear
6:35 PM 38.3 °F 33.9 °F 34.7 °F 87% 29.97 in 10.0 mi SW 5.8 mph - N/A   Clear
6:55 PM 38.5 °F 35.0 °F 34.5 °F 86% 29.97 in 10.0 mi South 4.6 mph - N/A   Clear
7:15 PM 38.8 °F 36.5 °F 34.7 °F 85% 29.98 in 10.0 mi SSW 3.5 mph - N/A   Clear
7:35 PM 36.1 °F - 34.0 °F 92% 29.98 in 10.0 mi Calm Calm - N/A   Clear
8:15 PM 37.4 °F 32.8 °F 32.0 °F 81% 29.99 in 10.0 mi SW 5.8 mph - N/A   Clear
8:35 PM 36.9 °F 32.2 °F 32.0 °F 83% 29.99 in 10.0 mi SW 5.8 mph - N/A   Clear
8:55 PM 36.1 °F 32.3 °F 32.5 °F 87% 29.99 in 10.0 mi SSW 4.6 mph - N/A   Clear
9:15 PM 36.0 °F 32.1 °F 32.4 °F 87% 29.99 in 10.0 mi SW 4.6 mph - N/A   Clear
9:35 PM 33.8 °F 30.8 °F 32.2 °F 94% 30.00 in 10.0 mi WSW 3.5 mph - N/A   Clear
9:55 PM 34.7 °F 29.6 °F 31.8 °F 89% 30.00 in 10.0 mi SW 5.8 mph - N/A   Clear
10:15 PM 35.2 °F 31.2 °F 31.5 °F 86% 30.00 in 10.0 mi SW 4.6 mph - N/A   Clear
10:35 PM 34.7 °F 31.8 °F 31.5 °F 88% 30.00 in 10.0 mi WSW 3.5 mph - N/A   Clear
10:55 PM 35.4 °F 32.6 °F 31.1 °F 84% 29.99 in 10.0 mi SW 3.5 mph - N/A   Clear
11:15 PM 34.9 °F 29.9 °F 31.1 °F 86% 30.00 in 10.0 mi SW 5.8 mph - N/A   Clear
11:35 PM 35.2 °F 31.2 °F 31.8 °F 87% 30.00 in 10.0 mi WSW 4.6 mph - N/A   Clear
11:55 PM 35.4 °F 31.5 °F 31.8 °F 87% 30.00 in 10.0 mi West 4.6 mph - N/A   Clear